ONEWEB-0037 (45440 NORAD) Tracking and Keplerian Element Data

This shows tracking and keplerian element data for the satellite.

Feedback or suggestion? Click here.




ElementValue
Catalog45440
NameONEWEB-0037
Epoch Orbit88
Epoch Day87.56840526
Epoch Year2020
RAAN136.8349
Inclination87.3984
Eccentricity0.0021401
Argument of Perigee281.1401
Mean Anonmoly78.7446
Mean Motion15.36481284
Decay Rate2.068E-05
L11 45440U 20020S 20087.56840526 .00002068 00000-0 56522-4 0 9994
L22 45440 87.3984 136.8349 0021401 281.1401 78.7446 15.36481284 881

Live tracking and technical data element details for ONEWEB-0037 (NORAD 45440). ONEWEB-0037 can be tracked NOW for your location showing map with azimuth and elevation plus other details from your city location.

Track the satellite on the map from your city or location and see movement details for azimuth, elevation, latitude, longitude, range, height, and movement on the map or in text.







IsCatalogInMostPopularTable: catalog: 45440, numindb: -1

Insert: records affected: 1


GetName: 45440 ONEWEB-0037

Hit Count: inserted at: Tue, 31 Mar 2020 13:28:48 GMT